Location: Praha
(50.0830°N, 14.4670°E)
Time: 18:33:11
(UTC+02:00)

ISS - Pass Details

Date: 04 May 2021
Orbit: 418 x 422 km, 51.6° (Epoch: 13 April)

Event Time Altitude Azimuth Distance (km) Brightness Sun altitude
Exits shadow 02:47:44 26° 121° (ESE) 869 -2.2 -19.7°
Drops below altitude 10° 02:49:57 10° 85° (E) 1,507 -0.5 -19.6°
Sets 02:52:13 0° 74° (ENE) 2,375 0.8 -19.4°
